| time (UTC) | temp F | wind direction | speed MPH | gust MPH | rain 1hr in | rain 24hr in | rain mn in | humidity % | barometer mb |
| 20260510103008 | 64 | 279 | 6.0 | 9.0 | 0.00 | 0.00 | 0.00 | 35 | 1017.8 |
| 20260510102306 | 62 | 313 | 3.0 | 6.0 | 0.00 | 0.00 | 0.00 | 35 | 1017.8 |
| 20260510101603 | 61 | 321 | 3.0 | 5.0 | 0.00 | 0.00 | 0.00 | 36 | 1017.9 |
| 20260510100912 | 61 | 354 | 6.0 | 7.0 | 0.00 | 0.00 | 0.00 | 37 | 1018.0 |
| 20260510100210 | 61 | 354 | 9.0 | 17.0 | 0.00 | 0.00 | 0.00 | 36 | 1018.0 |
| 20260510095508 | 60 | 314 | 3.0 | 7.0 | 0.00 | 0.00 | 0.00 | 38 | 1018.2 |
| 20260510094805 | 60 | 8 | 9.0 | 12.0 | 0.00 | 0.00 | 0.00 | 38 | 1018.2 |
| 20260510094104 | 61 | 359 | 5.0 | 8.0 | 0.00 | 0.00 | 0.00 | 38 | 1018.3 |
| 20260510093412 | 61 | 341 | 6.0 | 12.0 | 0.00 | 0.00 | 0.00 | 38 | 1018.5 |
| 20260510092710 | 62 | 266 | 10.0 | 14.0 | 0.00 | 0.00 | 0.00 | 38 | 1018.7 |
| 20260510092007 | 61 | 257 | 9.0 | 17.0 | 0.00 | 0.00 | 0.00 | 38 | 1018.8 |
| 20260510091305 | 62 | 348 | 5.0 | 9.0 | 0.00 | 0.00 | 0.00 | 38 | 1018.9 |
| 20260510090603 | 62 | 343 | 6.0 | 20.0 | 0.00 | 0.00 | 0.00 | 40 | 1018.9 |
| 20260510085902 | 61 | 322 | 5.0 | 12.0 | 0.00 | 0.00 | 0.00 | 40 | 1018.9 |
| 20260510085212 | 61 | 311 | 6.0 | 9.0 | 0.00 | 0.00 | 0.00 | 38 | 1019.1 |
| 20260510084510 | 61 | 277 | 7.0 | 12.0 | 0.00 | 0.00 | 0.00 | 38 | 1019.3 |
| 20260510083808 | 63 | 299 | 7.0 | 10.0 | 0.00 | 0.00 | 0.00 | 38 | 1019.2 |
| 20260510083106 | 62 | 264 | 8.0 | 12.0 | 0.00 | 0.00 | 0.00 | 39 | 1019.4 |
| 20260510082404 | 62 | 290 | 7.0 | 12.0 | 0.00 | 0.00 | 0.00 | 39 | 1019.5 |
| 20260510081700 | 62 | 329 | 8.0 | 9.0 | 0.00 | 0.00 | 0.00 | 40 | 1019.6 |
| 20260510081011 | 62 | 263 | 7.0 | 9.0 | 0.00 | 0.00 | 0.00 | 39 | 1019.6 |
| 20260510080308 | 63 | 319 | 5.0 | 5.0 | 0.00 | 0.00 | 0.00 | 40 | 1019.8 |
| 20260510075607 | 62 | 288 | 6.0 | 6.0 | 0.00 | 0.00 | 0.00 | 39 | 1019.7 |
| 20260510074905 | 63 | 332 | 6.0 | 8.0 | 0.00 | 0.00 | 0.00 | 39 | 1019.8 |
| 20260510074202 | 64 | 269 | 3.0 | 12.0 | 0.00 | 0.00 | 0.00 | 39 | 1020.1 |
| 20260510073512 | 64 | 321 | 8.0 | 12.0 | 0.00 | 0.00 | 0.00 | 39 | 1020.1 |
| 20260510072809 | 64 | 311 | 3.0 | 3.0 | 0.00 | 0.00 | 0.00 | 39 | 1020.2 |
| 20260510072106 | 65 | 272 | 5.0 | 9.0 | 0.00 | 0.00 | 0.00 | 39 | 1020.3 |
| 20260510071405 | 65 | 349 | 2.0 | 7.0 | 0.00 | 0.00 | 0.00 | 41 | 1020.5 |
| 20260510070701 | 64 | 316 | 2.0 | 6.0 | 0.00 | 0.00 | 0.00 | 41 | 1020.5 |
| 20260510070011 | 63 | 315 | 3.0 | 6.0 | 0.00 | 0.00 | 0.00 | 43 | 1020.5 |
| 20260510065309 | 62 | 3 | 3.0 | 5.0 | 0.00 | 0.00 | 0.00 | 43 | 1020.7 |
| 20260510064607 | 62 | 244 | 3.0 | 7.0 | 0.00 | 0.00 | 0.00 | 43 | 1020.8 |
| 20260510063905 | 61 | 294 | 2.0 | 3.0 | 0.00 | 0.00 | 0.00 | 45 | 1020.8 |
| 20260510063202 | 60 | 277 | 3.0 | 7.0 | 0.00 | 0.00 | 0.00 | 45 | 1021.0 |
| 20260510062512 | 59 | 306 | 3.0 | 7.0 | 0.00 | 0.00 | 0.00 | 47 | 1021.1 |
| 20260510061810 | 59 | 250 | 5.0 | 6.0 | 0.00 | 0.00 | 0.00 | 48 | 1021.0 |
| 20260510061108 | 57 | 254 | 5.0 | 6.0 | 0.00 | 0.00 | 0.00 | 49 | 1021.1 |
| 20260510060406 | 56 | 320 | 3.0 | 6.0 | 0.00 | 0.00 | 0.00 | 51 | 1021.2 |
| 20260510055703 | 55 | 247 | 3.0 | 6.0 | 0.00 | 0.00 | 0.00 | 52 | 1021.3 |
| 20260510055002 | 54 | 282 | 3.0 | 7.0 | 0.00 | 0.00 | 0.00 | 52 | 1021.4 |
| 20260510054301 | 53 | 251 | 2.0 | 5.0 | 0.00 | 0.00 | 0.00 | 54 | 1021.4 |
| 20260510053611 | 52 | 294 | 2.0 | 5.0 | 0.00 | 0.00 | 0.00 | 56 | 1021.5 |
| 20260510052909 | 51 | 249 | 2.0 | 3.0 | 0.00 | 0.00 | 0.00 | 56 | 1021.5 |
| 20260510052205 | 50 | 264 | 3.0 | 3.0 | 0.00 | 0.00 | 0.00 | 57 | 1021.6 |
| 20260510051503 | 49 | 259 | 3.0 | 6.0 | 0.00 | 0.00 | 0.00 | 58 | 1021.6 |
| 20260510050801 | 48 | 337 | 2.0 | 7.0 | 0.00 | 0.00 | 0.00 | 59 | 1021.6 |
| 20260510050111 | 48 | 6 | 5.0 | 7.0 | 0.00 | 0.00 | 0.00 | 60 | 1021.8 |
| 20260510045410 | 47 | 297 | 2.0 | 9.0 | 0.00 | 0.00 | 0.00 | 61 | 1021.9 |
| 20260510044707 | 46 | 334 | 5.0 | 6.0 | 0.00 | 0.00 | 0.00 | 63 | 1022.0 |
| 20260510044005 | 46 | 259 | 3.0 | 3.0 | 0.00 | 0.00 | 0.00 | 63 | 1022.0 |
| 20260510043302 | 45 | 250 | 2.0 | 2.0 | 0.00 | 0.00 | 0.00 | 63 | 1022.0 |
| 20260510042611 | 45 | 304 | 2.0 | 5.0 | 0.00 | 0.00 | 0.00 | 64 | 1022.1 |
| 20260510041910 | 45 | 248 | 3.0 | 6.0 | 0.00 | 0.00 | 0.00 | 64 | 1022.2 |
| 20260510041209 | 44 | 248 | 5.0 | 5.0 | 0.00 | 0.00 | 0.00 | 65 | 1022.2 |
| 20260510040508 | 43 | 327 | 3.0 | 3.0 | 0.00 | 0.00 | 0.00 | 66 | 1022.2 |
| 20260510035806 | 42 | 253 | 2.0 | 7.0 | 0.00 | 0.00 | 0.00 | 67 | 1022.1 |
| 20260510035103 | 41 | 248 | 1.0 | 3.0 | 0.00 | 0.00 | 0.00 | 67 | 1022.2 |
| 20260510034401 | 41 | 248 | 1.0 | 2.0 | 0.00 | 0.00 | 0.00 | 67 | 1022.2 |
| 20260510033710 | 40 | 291 | 2.0 | 2.0 | 0.00 | 0.00 | 0.00 | 67 | 1022.3 |
| 20260510033009 | 40 | 255 | 1.0 | 3.0 | 0.00 | 0.00 | 0.00 | 68 | 1022.3 |
| 20260510032308 | 39 | 250 | 3.0 | 7.0 | 0.00 | 0.00 | 0.00 | 68 | 1022.3 |
| 20260510031606 | 39 | 248 | 2.0 | 3.0 | 0.00 | 0.00 | 0.00 | 69 | 1022.3 |
| 20260510030903 | 38 | 248 | 1.0 | 2.0 | 0.00 | 0.00 | 0.00 | 69 | 1022.4 |
| 20260510030201 | 38 | 248 | 1.0 | 2.0 | 0.00 | 0.00 | 0.00 | 70 | 1022.4 |
| 20260510025511 | 37 | 265 | 1.0 | 3.0 | 0.00 | 0.00 | 0.00 | 70 | 1022.6 |
| 20260510024810 | 37 | 248 | 2.0 | 3.0 | 0.00 | 0.00 | 0.00 | 70 | 1022.5 |
| 20260510024107 | 37 | 275 | 2.0 | 3.0 | 0.00 | 0.00 | 0.00 | 70 | 1022.6 |
| 20260510023406 | 37 | 267 | 2.0 | 3.0 | 0.00 | 0.00 | 0.00 | 70 | 1022.8 |
| 20260510022705 | 37 | 260 | 2.0 | 3.0 | 0.00 | 0.00 | 0.00 | 70 | 1022.8 |
| 20260510022001 | 37 | 248 | 2.0 | 3.0 | 0.00 | 0.00 | 0.00 | 70 | 1022.9 |
| 20260510021312 | 37 | 261 | 2.0 | 2.0 | 0.00 | 0.00 | 0.00 | 70 | 1023.0 |
| 20260510020609 | 37 | 275 | 2.0 | 6.0 | 0.00 | 0.00 | 0.00 | 69 | 1023.0 |
| 20260510015909 | 37 | 266 | 2.0 | 3.0 | 0.00 | 0.00 | 0.00 | 69 | 1023.1 |
| 20260510015208 | 37 | 255 | 2.0 | 5.0 | 0.00 | 0.00 | 0.00 | 68 | 1023.1 |
| 20260510014506 | 37 | 322 | 2.0 | 3.0 | 0.00 | 0.00 | 0.00 | 68 | 1023.2 |
| 20260510013803 | 37 | 256 | 2.0 | 3.0 | 0.00 | 0.00 | 0.00 | 67 | 1023.3 |
| 20260510013112 | 37 | 251 | 0.0 | 1.0 | 0.00 | 0.00 | 0.00 | 65 | 1023.3 |
| 20260510012410 | 38 | 243 | 1.0 | 3.0 | 0.00 | 0.00 | 0.00 | 65 | 1023.3 |
| 20260510011709 | 38 | 248 | 1.0 | 2.0 | 0.00 | 0.00 | 0.00 | 65 | 1023.5 |
| 20260510011008 | 38 | 248 | 1.0 | 2.0 | 0.00 | 0.00 | 0.00 | 65 | 1023.5 |
| 20260510010306 | 38 | 248 | 1.0 | 1.0 | 0.00 | 0.00 | 0.00 | 65 | 1023.8 |
| 20260510005604 | 37 | 252 | 1.0 | 2.0 | 0.00 | 0.00 | 0.00 | 65 | 1023.9 |
| 20260510004902 | 37 | 248 | 1.0 | 2.0 | 0.00 | 0.00 | 0.00 | 65 | 1023.9 |
| 20260510004212 | 37 | 257 | 2.0 | 3.0 | 0.00 | 0.00 | 0.00 | 65 | 1023.9 |
| 20260510003508 | 37 | 248 | 1.0 | 3.0 | 0.00 | 0.00 | 0.00 | 64 | 1023.9 |
| 20260510002806 | 37 | 248 | 0.0 | 1.0 | 0.00 | 0.00 | 0.00 | 64 | 1023.9 |
| 20260510002105 | 38 | 248 | 1.0 | 1.0 | 0.00 | 0.00 | 0.00 | 63 | 1024.0 |
| 20260510001402 | 38 | 285 | 1.0 | 1.0 | 0.00 | 0.00 | 0.00 | 62 | 1023.9 |
| 20260510000701 | 38 | 267 | 2.0 | 3.0 | 0.00 | 0.00 | 0.00 | 62 | 1024.0 |
| 20260510000011 | 38 | 248 | 1.0 | 2.0 | 0.00 | 0.00 | 0.00 | 62 | 1024.1 |
| 20260509235310 | 38 | 250 | 1.0 | 3.0 | 0.00 | 0.00 | 0.00 | 62 | 1024.1 |
| 20260509234608 | 38 | 248 | 0.0 | 2.0 | 0.00 | 0.00 | 0.00 | 61 | 1024.2 |
| 20260509233904 | 38 | 248 | 0.0 | 0.0 | 0.00 | 0.00 | 0.00 | 61 | 1024.2 |
| 20260509233203 | 38 | 248 | 0.0 | 0.0 | 0.00 | 0.00 | 0.00 | 61 | 1024.2 |
| 20260509232511 | 38 | 248 | 1.0 | 2.0 | 0.00 | 0.00 | 0.00 | 62 | 1024.2 |
| 20260509231810 | 37 | 253 | 1.0 | 6.0 | 0.00 | 0.00 | 0.00 | 62 | 1024.4 |
| 20260509231108 | 38 | 248 | 0.0 | 0.0 | 0.00 | 0.00 | 0.00 | 62 | 1024.6 |
| 20260509230405 | 37 | 248 | 0.0 | 0.0 | 0.00 | 0.00 | 0.00 | 62 | 1024.6 |
| 20260509225703 | 38 | 248 | 0.0 | 0.0 | 0.00 | 0.00 | 0.00 | 61 | 1024.7 |
| 20260509225012 | 38 | 248 | 0.0 | 1.0 | 0.00 | 0.00 | 0.00 | 61 | 1024.8 |
| 20260509224310 | 39 | 248 | 0.0 | 0.0 | 0.00 | 0.00 | 0.00 | 62 | 1024.8 |
| 20260509223609 | 39 | 248 | 1.0 | 2.0 | 0.00 | 0.00 | 0.00 | 62 | 1024.8 |
| 20260509222907 | 39 | 251 | 2.0 | 2.0 | 0.00 | 0.00 | 0.00 | 62 | 1024.8 |
| 20260509222206 | 39 | 254 | 0.0 | 2.0 | 0.00 | 0.00 | 0.00 | 63 | 1024.9 |
| 20260509221503 | 39 | 248 | 0.0 | 0.0 | 0.00 | 0.00 | 0.00 | 63 | 1024.8 |
| 20260509220801 | 39 | 247 | 0.0 | 2.0 | 0.00 | 0.00 | 0.00 | 61 | 1024.9 |
| 20260509220111 | 39 | 248 | 1.0 | 2.0 | 0.00 | 0.00 | 0.00 | 60 | 1024.9 |
| 20260509215408 | 40 | 250 | 1.0 | 3.0 | 0.00 | 0.00 | 0.00 | 58 | 1024.9 |
| 20260509214706 | 40 | 248 | 0.0 | 0.0 | 0.00 | 0.00 | 0.00 | 57 | 1025.0 |
| 20260509214004 | 40 | 248 | 1.0 | 1.0 | 0.00 | 0.00 | 0.00 | 56 | 1025.0 |
| 20260509213302 | 40 | 248 | 0.0 | 2.0 | 0.00 | 0.00 | 0.00 | 55 | 1025.1 |
| 20260509212601 | 40 | 271 | 1.0 | 2.0 | 0.00 | 0.00 | 0.00 | 54 | 1025.3 |
| 20260509211912 | 41 | 248 | 0.0 | 0.0 | 0.00 | 0.00 | 0.00 | 53 | 1025.4 |
| 20260509211210 | 40 | 248 | 0.0 | 0.0 | 0.00 | 0.00 | 0.00 | 54 | 1025.3 |
| 20260509210507 | 40 | 248 | 0.0 | 1.0 | 0.00 | 0.00 | 0.00 | 53 | 1025.4 |
| 20260509205805 | 40 | 248 | 0.0 | 0.0 | 0.00 | 0.00 | 0.00 | 52 | 1025.5 |
| 20260509205102 | 40 | 248 | 0.0 | 0.0 | 0.00 | 0.00 | 0.00 | 51 | 1025.5 |
| 20260509204412 | 40 | 248 | 0.0 | 0.0 | 0.00 | 0.00 | 0.00 | 51 | 1025.4 |
| 20260509203711 | 40 | 248 | 0.0 | 0.0 | 0.00 | 0.00 | 0.00 | 50 | 1025.5 |
| 20260509203010 | 40 | 248 | 0.0 | 0.0 | 0.00 | 0.00 | 0.00 | 49 | 1025.5 |
| 20260509202307 | 40 | 248 | 0.0 | 0.0 | 0.00 | 0.00 | 0.00 | 48 | 1025.6 |
| 20260509201604 | 41 | 248 | 0.0 | 0.0 | 0.00 | 0.00 | 0.00 | 48 | 1025.6 |
| 20260509200900 | 41 | 248 | 0.0 | 0.0 | 0.00 | 0.00 | 0.00 | 48 | 1025.7 |
| 20260509200211 | 41 | 248 | 0.0 | 0.0 | 0.00 | 0.00 | 0.00 | 48 | 1025.7 |
| 20260509195509 | 42 | 248 | 0.0 | 0.0 | 0.00 | 0.00 | 0.00 | 47 | 1025.8 |
| 20260509194805 | 42 | 248 | 0.0 | 0.0 | 0.00 | 0.00 | 0.00 | 47 | 1025.8 |
| 20260509194103 | 42 | 248 | 0.0 | 0.0 | 0.00 | 0.00 | 0.00 | 47 | 1025.8 |
| 20260509193412 | 42 | 248 | 0.0 | 0.0 | 0.00 | 0.00 | 0.00 | 46 | 1025.9 |
| 20260509192711 | 43 | 248 | 0.0 | 0.0 | 0.00 | 0.00 | 0.00 | 46 | 1025.9 |
| 20260509192009 | 43 | 248 | 0.0 | 0.0 | 0.00 | 0.00 | 0.00 | 46 | 1025.9 |
| 20260509191306 | 44 | 248 | 0.0 | 0.0 | 0.00 | 0.00 | 0.00 | 46 | 1025.8 |
| 20260509190604 | 44 | 248 | 0.0 | 0.0 | 0.00 | 0.00 | 0.00 | 45 | 1025.8 |
| 20260509185901 | 45 | 248 | 0.0 | 0.0 | 0.00 | 0.00 | 0.00 | 45 | 1026.0 |
| 20260509185212 | 45 | 248 | 0.0 | 0.0 | 0.00 | 0.00 | 0.00 | 44 | 1025.9 |
| 20260509184509 | 46 | 248 | 0.0 | 0.0 | 0.00 | 0.00 | 0.00 | 44 | 1026.0 |
| 20260509183807 | 46 | 255 | 0.0 | 1.0 | 0.00 | 0.00 | 0.00 | 44 | 1026.1 |
| 20260509183106 | 46 | 248 | 0.0 | 1.0 | 0.00 | 0.00 | 0.00 | 43 | 1026.1 |
| 20260509182405 | 47 | 248 | 0.0 | 0.0 | 0.00 | 0.00 | 0.00 | 43 | 1026.1 |
| 20260509181702 | 48 | 248 | 0.0 | 0.0 | 0.00 | 0.00 | 0.00 | 42 | 1026.1 |
| 20260509181012 | 49 | 248 | 0.0 | 1.0 | 0.00 | 0.00 | 0.00 | 42 | 1026.0 |
| 20260509180309 | 49 | 248 | 0.0 | 0.0 | 0.00 | 0.00 | 0.00 | 41 | 1026.0 |
| 20260509175607 | 50 | 248 | 0.0 | 2.0 | 0.00 | 0.00 | 0.00 | 40 | 1026.0 |
| 20260509174905 | 50 | 248 | 0.0 | 0.0 | 0.00 | 0.00 | 0.00 | 40 | 1026.0 |
| 20260509174202 | 51 | 343 | 1.0 | 3.0 | 0.00 | 0.00 | 0.00 | 40 | 1025.8 |
| 20260509173511 | 51 | 19 | 2.0 | 2.0 | 0.00 | 0.00 | 0.00 | 40 | 1025.8 |
| 20260509172808 | 52 | 248 | 1.0 | 3.0 | 0.00 | 0.00 | 0.00 | 39 | 1025.8 |
| 20260509172106 | 52 | 260 | 2.0 | 3.0 | 0.00 | 0.00 | 0.00 | 39 | 1025.7 |
| 20260509171404 | 52 | 263 | 1.0 | 1.0 | 0.00 | 0.00 | 0.00 | 39 | 1025.8 |
| 20260509170701 | 53 | 262 | 2.0 | 8.0 | 0.00 | 0.00 | 0.00 | 39 | 1025.7 |
| 20260509170011 | 53 | 263 | 1.0 | 3.0 | 0.00 | 0.00 | 0.00 | 39 | 1025.9 |
| 20260509165308 | 53 | 281 | 2.0 | 13.0 | 0.00 | 0.00 | 0.00 | 38 | 1025.8 |
| 20260509164607 | 54 | 269 | 2.0 | 7.0 | 0.00 | 0.00 | 0.00 | 38 | 1025.7 |
| 20260509163905 | 54 | 329 | 3.0 | 9.0 | 0.00 | 0.00 | 0.00 | 38 | 1025.8 |
| 20260509163202 | 55 | 269 | 3.0 | 5.0 | 0.00 | 0.00 | 0.00 | 38 | 1025.8 |
| 20260509162511 | 55 | 249 | 0.0 | 1.0 | 0.00 | 0.00 | 0.00 | 38 | 1025.8 |
| 20260509161808 | 55 | 0 | 1.0 | 3.0 | 0.00 | 0.00 | 0.00 | 38 | 1025.9 |
| 20260509161106 | 56 | 277 | 2.0 | 3.0 | 0.00 | 0.00 | 0.00 | 37 | 1025.9 |
| 20260509160404 | 56 | 289 | 1.0 | 1.0 | 0.00 | 0.00 | 0.00 | 37 | 1025.8 |
| 20260509155701 | 57 | 353 | 1.0 | 3.0 | 0.00 | 0.00 | 0.00 | 37 | 1025.9 |
| 20260509155010 | 58 | 18 | 2.0 | 7.0 | 0.00 | 0.00 | 0.00 | 36 | 1025.9 |
| 20260509154308 | 58 | 249 | 1.0 | 2.0 | 0.00 | 0.00 | 0.00 | 35 | 1026.0 |
| 20260509153605 | 58 | 343 | 5.0 | 7.0 | 0.00 | 0.00 | 0.00 | 33 | 1026.0 |
| 20260509152904 | 58 | 287 | 2.0 | 6.0 | 0.00 | 0.00 | 0.00 | 33 | 1026.1 |
| 20260509152202 | 59 | 242 | 2.0 | 3.0 | 0.00 | 0.00 | 0.00 | 33 | 1026.2 |
| 20260509151502 | 59 | 245 | 2.0 | 2.0 | 0.00 | 0.00 | 0.00 | 33 | 1026.2 |
| 20260509150811 | 60 | 288 | 3.0 | 6.0 | 0.00 | 0.00 | 0.00 | 32 | 1026.3 |
| 20260509150107 | 61 | 254 | 2.0 | 3.0 | 0.00 | 0.00 | 0.00 | 32 | 1026.4 |
| 20260509145405 | 62 | 338 | 3.0 | 6.0 | 0.00 | 0.00 | 0.00 | 32 | 1026.3 |
| 20260509144703 | 62 | 248 | 1.0 | 2.0 | 0.00 | 0.00 | 0.00 | 31 | 1026.5 |
| 20260509144003 | 62 | 243 | 1.0 | 5.0 | 0.00 | 0.00 | 0.00 | 31 | 1026.6 |
| 20260509143301 | 63 | 269 | 2.0 | 7.0 | 0.00 | 0.00 | 0.00 | 31 | 1026.6 |
| 20260509142612 | 62 | 262 | 3.0 | 5.0 | 0.00 | 0.00 | 0.00 | 31 | 1026.6 |
| 20260509141910 | 62 | 271 | 3.0 | 6.0 | 0.00 | 0.00 | 0.00 | 31 | 1026.8 |
| 20260509141208 | 64 | 268 | 2.0 | 5.0 | 0.00 | 0.00 | 0.00 | 30 | 1026.7 |
| 20260509140507 | 64 | 352 | 2.0 | 5.0 | 0.00 | 0.00 | 0.00 | 30 | 1026.9 |
| 20260509135805 | 64 | 319 | 3.0 | 5.0 | 0.00 | 0.00 | 0.00 | 30 | 1026.9 |
| 20260509135101 | 63 | 253 | 2.0 | 6.0 | 0.00 | 0.00 | 0.00 | 31 | 1027.0 |
| 20260509134412 | 63 | 252 | 3.0 | 8.0 | 0.00 | 0.00 | 0.00 | 31 | 1027.0 |
| 20260509133709 | 63 | 244 | 0.0 | 2.0 | 0.00 | 0.00 | 0.00 | 31 | 1027.0 |
| 20260509133007 | 63 | 319 | 2.0 | 2.0 | 0.00 | 0.00 | 0.00 | 31 | 1027.2 |
| 20260509132306 | 62 | 292 | 1.0 | 1.0 | 0.00 | 0.00 | 0.00 | 31 | 1027.3 |
| 20260509131602 | 61 | 248 | 1.0 | 7.0 | 0.00 | 0.00 | 0.00 | 31 | 1027.3 |
| 20260509130912 | 63 | 307 | 3.0 | 9.0 | 0.00 | 0.00 | 0.00 | 29 | 1027.3 |
| 20260509130210 | 65 | 257 | 5.0 | 6.0 | 0.00 | 0.00 | 0.00 | 28 | 1027.4 |
| 20260509125508 | 67 | 264 | 2.0 | 3.0 | 0.00 | 0.00 | 0.00 | 27 | 1027.4 |
| 20260509124806 | 71 | 282 | 2.0 | 3.0 | 0.00 | 0.00 | 0.00 | 26 | 1027.7 |
| 20260509124104 | 73 | 256 | 1.0 | 2.0 | 0.00 | 0.00 | 0.00 | 27 | 1027.7 |
| 20260509123402 | 73 | 251 | 1.0 | 7.0 | 0.00 | 0.00 | 0.00 | 27 | 1027.7 |
| 20260509122712 | 72 | 352 | 2.0 | 9.0 | 0.00 | 0.00 | 0.00 | 27 | 1027.7 |
| 20260509122010 | 71 | 250 | 3.0 | 6.0 | 0.00 | 0.00 | 0.00 | 28 | 1027.9 |
| 20260509121309 | 68 | 248 | 3.0 | 6.0 | 0.00 | 0.00 | 0.00 | 29 | 1027.9 |
| 20260509120606 | 67 | 282 | 6.0 | 10.0 | 0.00 | 0.00 | 0.00 | 27 | 1028.0 |
| 20260509115904 | 68 | 269 | 5.0 | 7.0 | 0.00 | 0.00 | 0.00 | 27 | 1028.1 |
| 20260509115202 | 70 | 332 | 8.0 | 10.0 | 0.00 | 0.00 | 0.00 | 26 | 1028.2 |
| 20260509114511 | 69 | 239 | 1.0 | 2.0 | 0.00 | 0.00 | 0.00 | 27 | 1028.2 |
| 20260509113809 | 70 | 356 | 5.0 | 9.0 | 0.00 | 0.00 | 0.00 | 26 | 1028.2 |
| 20260509113106 | 71 | 358 | 2.0 | 6.0 | 0.00 | 0.00 | 0.00 | 26 | 1028.2 |
| 20260509112403 | 69 | 248 | 2.0 | 6.0 | 0.00 | 0.00 | 0.00 | 27 | 1028.5 |
| 20260509111702 | 69 | 329 | 6.0 | 12.0 | 0.00 | 0.00 | 0.00 | 27 | 1028.5 |
| 20260509111001 | 69 | 265 | 5.0 | 9.0 | 0.00 | 0.00 | 0.00 | 27 | 1028.6 |
| 20260509110311 | 68 | 269 | 3.0 | 6.0 | 0.00 | 0.00 | 0.00 | 27 | 1028.6 |
| 20260509105609 | 70 | 259 | 1.0 | 8.0 | 0.00 | 0.00 | 0.00 | 29 | 1028.7 |
| 20260509104907 | 68 | 273 | 2.0 | 6.0 | 0.00 | 0.00 | 0.00 | 28 | 1028.8 |
| 20260509104205 | 66 | 262 | 0.0 | 3.0 | 0.00 | 0.00 | 0.00 | 30 | 1028.9 |